www.pogodaiklimat.ru

Погода и климат >> Архив погоды >> Россия >> Ставропольский край >> Невинномысск


ПОГОДА в Невинномысске

АРХИВ ПОГОДЫ в Невинномысске

Время (UTC), дата Ветер
(напр.,м/с)
 
Видим.   Явления Облачность Т
(С)
Тd
(С)
f
(%)
Тe
(С)
Тes
(С)
Комфортность P
(гПа)
Po
(гПа)
Тmin
(С)
Tmax
(С)
R
(мм)
R24
(мм)
S
(см)
03 13.07 Ю 1 20 км 10/0
[Ac trans]
+13.8 +12.2 90 +14 +15 холодно 1009.6 969.6 +12.5
06 13.07 СВ 1 20 км 10/0
[]
+19.0 +13.6 71 +21 +28 комфорт 1009.3 970.1
09 13.07 СВ 1 10 км слаб. ливневой дождь 10/10 1000 м
[Cb cap]
+19.4 +14.7 74 +22 +22 комфорт 1009.3 970.1
12 13.07 ЮВ 2 10 км слаб. ливневой дождь 10/10 1000 м
[Cb cap]
+21.0 +14.1 65 +25 +25 комфорт 1008.8 969.9
15 13.07 СЗ 3 20 км {ливн. осадки} 8/8 1000 м
[Cb calv]
+22.8 +10.0 44 +25 +25 комфорт 1009.2 970.4 +24.3 2
18 13.07 СЗ 4 20 км 10/10 1000 м
[Sc diur, vesp]
+19.4 +10.7 57 +20 +20 по сезону 1011.3 972.0
21 13.07 ЮЗ 1 20 км 10/10 1000 м
[Sc]
+17.3 +11.8 70 +18 +18 по сезону 1012.0 972.4
00 14.07 ЮЗ 1 20 км ясно +14.5 +12.7 89 +15 +15 прохладно 1011.2 971.2
03 14.07 Ю 2 20 км 8/0
[Ac trans]
+15.2 +13.1 87 +15 +16 холодно 1011.6 971.8 +14.0
06 14.07 СЗ 1 20 км 8/3 1000 м
[Cu med, cong Ac cuf]
+20.3 +12.7 62 +23 +28 комфорт 1010.9 971.8
09 14.07 С 2 20 км 6/6 1000 м
[Cb calv]
+22.6 +8.7 41 +24 +31 комфорт 1009.8 971.0
12 14.07 В 2 20 км 4/4 1000 м
[Cu med, cong]
+25.6 +8.7 34 +26 +33 жарко 1008.3 969.9
15 14.07 В 2 20 км 10/3 1000 м
[Cu med, cong Ci ing]
+25.2 +7.8 33 +25 +26 комфорт 1007.5 969.1 +26.5
18 14.07 В 2 20 км 10/0
[Ci sp]
+19.8 +11.3 58 +22 +22 комфорт 1008.7 969.6
21 14.07 штиль 0 20 км 10/0
[Ci sp]
+16.5 +12.0 75 +16 +16 прохладно 1008.0 968.5
00 15.07 В 2 20 км ясно +15.8 +11.8 77 +16 +16 по сезону 1007.2 967.6
03 15.07 В 2 20 км ясно +15.1 +12.0 82 +15 +16 холодно 1006.5 966.9 +13.2
06 15.07 В 5-11
{11}
20 км 10/0
[Ci fib]
+22.9 +11.3 48 +25 +30 комфорт 1004.9 966.3
09 15.07 В 4-10
{12}
20 км 10/0
[Ac trans]
+26.0 +8.3 33 +26 +31 жарко 1003.3 965.1
12 15.07 В 2
{12}
20 км 10/6 1000 м
[Sc Ac trans]
+26.2 +8.6 33 +26 +28 жарко 1002.4 964.3
15 15.07 СЗ 2 20 км в посл. час ливневой дождь 10/10 600 м
[Cb calv]
+19.9 +14.3 70 +23 +23 комфорт 1004.3 965.4 +27.5 0.3
18 15.07 Ю 1
{10}
20 км в посл. час ливневой дождь 9/6 600 м
[Cb calv Ac und]
+17.5 +15.7 89 +19 +19 прохладно 1006.1 966.8
21 15.07 штиль 0 20 км 9/4 1000 м
[Sc Ac und]
+17.3 +15.8 91 +17 +17 прохладно 1005.4 966.2
00 16.07 ЮЗ 2 20 км 10/0
[Ac und]
+15.7 +14.5 93 +16 +16 по сезону 1006.0 966.4
03 16.07 Ю 2 н/о н/о +15.9 +14.2 90 +16 +16 холодно 1006.8 967.3 +15.5 3
06 16.07 ЮЗ 1 20 км 8/0
[Ac trans]
+20.0 +15.6 76 +24 +30 комфорт 1006.5 967.6
09 16.07 СВ 1 50 км 10/0
[Ac trans Ci]
+25.1 +14.2 51 +28 +38 жарко 1005.2 966.9
12 16.07 Ю 1 20 км 10/3 1000 м
[Sc diur, vesp Ac trans]
+26.3 +12.3 42 +28 +32 жарко 1004.0 965.9
15 16.07 СЗ 3 20 км 10/3 1000 м
[Cu hum Ac trans Ci]
+22.6 +15.1 63 +26 +27 жарко 1006.9 968.2 +28.4
18 16.07 З 2 20 км 10/0
[Ac trans Ci]
+21.2 +12.7 58 +23 +23 комфорт 1009.4 970.4
21 16.07 Ю 1 20 км 10/0
[Ci]
+18.2 +12.5 69 +20 +20 по сезону 1010.4 971.0
00 17.07 ЮЗ 1 20 км ясно +15.9 +12.5 80 +17 +17 по сезону 1010.4 970.7
03 17.07 Ю 1 20 км ясно +15.0 +12.4 84 +16 +17 холодно 1010.9 971.1 +14.1
06 17.07 ЮЗ 1 20 км ясно +22.3 +12.7 55 +25 +38 комфорт 1009.2 970.4
09 17.07 СЗ 1 20 км 10/0
[Ci fib]
+26.0 +10.8 39 +27 +45 жарко 1007.1 968.8
12 17.07 СВ 1 20 км 10/0
[Ac trans Ci fib]
+28.4 +9.1 30 +28 +37 жарко 1005.8 967.8
15 17.07 В 2 20 км 10/10 1000 м
[Sc diur, vesp]
+27.0 +10.7 36 +28 +28 жарко 1005.7 967.6 +29.6
18 17.07 ЮВ 2 20 км 10/0
[Ac und Ci]
+23.0 +13.5 55 +26 +26 жарко 1006.8 968.2
21 17.07 СВ 1 20 км 10/0
[Ci fib]
+20.0 +12.9 64 +23 +23 комфорт 1006.4 967.4
00 18.07 В 1 20 км 8/0
[Ci fib]
+18.2 +13.7 75 +20 +20 тепло 1005.9 966.7
03 18.07 В 2 20 км 10/0
[Ac trans]
+20.5 +13.9 66 +24 +24 комфорт 1006.0 967.1 +17.3
06 18.07 В 2 20 км 10/0
[Ac cast Ci sp]
+26.4 +14.1 47 +29 +35 жарко 1005.0 966.9
09 18.07 СЗ 1 20 км {ливн. осадки} 10/8 1000 м
[Cb calv Ac und]
+23.9 +15.6 60 +27 +28 жарко 1006.7 968.2
12 18.07 С 2 20 км {ливн. осадки} 10/8
[Cb calv Ac und]
+22.3 +16.5 70 +27 +39 душно 1006.8 968.1
15 18.07 С 1 20 км 10/3 1000 м
[Cb calv Ac cuf Ci ing]
+23.6 +16.4 64 +27 +28 жарко 1007.8 969.2 +27.9 0.0
18 18.07 СВ 1 20 км 10/6 600 м
[Sc diur, vesp Ac As]
+20.3 +16.7 80 +24 +24 комфорт 1010.0 971.0
21 18.07 В 2 20 км 10/0
[Ac cast]
+19.3 +16.7 85 +22 +22 комфорт 1010.9 971.7
00 19.07 СВ 1 20 км 10/0
[Ac cast]
+18.9 +16.5 86 +21 +21 комфорт 1012.2 972.9
03 19.07 штиль 0 20 км 10/0
[Ac und]
+18.2 +15.6 85 +18 +19 прохладно 1013.3 973.8 +18.0
06 19.07 СВ 2 20 км 10/3 1000 м
[Cu med, cong Ac cast Ci]
+23.1 +14.8 60 +27 +31 душно 1013.3 974.4
09 19.07 С 1 10 км в посл. час ливневой дождь 10/10 1000 м
[Cb cap]
+25.6 +14.2 49 +28 +34 жарко 1012.8 974.3
12 19.07 З 1 10 км в посл. час ливневой дождь 10/10 1000 м
[Cb cap]
+26.0 +13.8 47 +28 +28 жарко 1012.5 974.1
15 19.07 З 2 20 км в посл. час ливневой дождь 10/10 1000 м
[Cb calv]
+21.0 +18.2 84 +26 +26 душно 1014.5 975.4 +27.3 3
18 19.07 штиль 0 20 км {ливн. осадки} 10/0
[Ac und]
+20.3 +18.4 89 +24 +24 комфорт 1016.3 977.0
21 19.07 ЮЗ 1 20 км {ливн. осадки} 10/6 600 м
[Sc Ac und]
+19.8 +18.1 90 +24 +24 комфорт 1016.4 977.1
00 20.07 ЮЗ 1 20 км {ливн. осадки} 10/10 600 м
[Sc]
+19.2 +17.6 90 +22 +22 комфорт 1016.9 977.5

 

Местоположение метеостанции Невинномысск (Ставропольский край, Россия): широта 44.63 долгота 41.97 высота над уровнем моря 343 м.

В архиве по умолчанию представлена погода в Невинномысске за последнюю неделю. Архивные данные за месяц целиком и за предыдущие месяцы, начиная с января 2011 года, Вы можете получить, выбрав интересующий диапазон дат из раскрывающегося списка и нажав кнопку "Ввод!".


*Определитесь, кто Вы:
робот инопланетянин человек

Внимание! Время в таблицах - всемирное. Для получения местного времени необходимо прибавить поправку, которая равна 3 ч.

Смотрите также архив погоды в соседних городах и на ближайших метеорологических станциях:

Погода в Черкесске (Карачаево-Черкессия, Россия) (46 км)
Погода в Отрадной (Краснодарский край, Россия) (47 км)
Погода в Ставрополе (Ставропольский край, Россия) (55 км)
Погода в Армавире (Краснодарский край, Россия) (78 км)
Погода в Александровском (Ставропольский край, Россия) (82 км)
Погода в Изобильном (Ставропольский край, Россия) (85 км)
Погода в Зеленчукской (Карачаево-Черкессия, Россия) (90 км)
Погода в Лабинске (Краснодарский край, Россия) (97 км)
Погода в Даховской (Адыгея, Россия) (97 км)
Погода в Минеральных Водах (Ставропольский край, Россия) (101 км)

Пояснения к столбцам:

Ветер - указаны скорость ветра в м/с - средняя за 10 мин, порывы в срок и между сроками (в фигурных скобках) и направление, откуда дует ветер: С - северный, СВ - северо-восточный, В - восточный, ЮВ - юго-восточный, Ю - южный, ЮЗ - юго-западный, З - западный, СЗ - северо-западный.
Видимость - горизонтальная дальность видимости в метрах или километрах. При видимости от 1 до 10 км при отсутствии осадков обычно наблюдается дымка, при ухудшении видимости до 1 км и менее - туман. В сухую погоду видимость может ухудшаться дымом, пылью или мглою.
Явления - указаны атмосферные явления, наблюдавшиеся в срок или в последний час перед сроком; фигурными скобками обозначены явления, наблюдавшиеся между сроками (за 1-3 часа до срока); квадратными скобками обозначены град или гололедные отложения с указанием их диаметра в мм.
Облачность - указаны через наклонную черту общая и нижняя облачность в баллах и высота нижней границы облаков в метрах; квадратными скобками обозначены формы облаков: Ci - перистые, Cs - перисто-слоистые, Cc - перисто-кучевые, Ac - высококучевые, As - высокослоистые, Sc - слоисто-кучевые, Ns - слоисто-дождевые, Cu - кучевые, Cb - кучево-дождевые. Подробнее классификацию облаков см. в Атласе облаков (PDF).
T - Температура воздуха - температура, измеренная на высоте 2 м над землей.
Td - Температура точки росы - температура, при понижении до которой содержащийся в воздухе водяной пар достигнет насыщения.
f - Относительная влажность воздуха - влажноcть воздуха, измеренная на высоте 2 м над землей.
Te - Эффективная температура - температура, которую ощущает одетый по сезону человек в тени. Характеристика душности погоды. При расчете учитывается влияние влажности воздуха и скорости ветра на теплоощущения человека.
Tes - Эффективная температура на солнце - температура, которую ощущает человек, с поправкой на солнечный нагрев. Характеристика знойности погоды. Зависит от высоты солнца над горизонтом, облачности и скорости ветра. Ночью, в пасмурную погоду, а также при ветре 12 м/с и более поправка равна нулю.
P - Атмосферное давление - приведенное к уровню моря атмосферное давление.
Po - Атмосферное давление - измеренное на уровне метеостанции атмосферное давление.
Tmin - Минимальная температура - минимум температуры воздуха на высоте 2 м над землей.
Tmax - Максимальная температура - максимум температуры воздуха на высоте 2 м над землей.
R - Количество осадков - Количество выпавших осадков за период времени, мм. При наведении курсора мыши на число - период времени, за который выпало указанное количество осадков.
R24 - Количество осадков - Количество выпавших осадков за 24 часа, мм.
S - Снежный покров - Высота снежного покрова, см. При наведении курсора мыши на число - состояние снежного покрова и степень покрытия местности в баллах.